EW7659 Weather Reports


Display with metric or nautical units.
time (UTC)temp
F
wind
direction
speed
MPH
gust
MPH
rain 1hr
in
rain 24hr
in
rain mn
in
humidity
%
barometer
mb
20260506091103 46 35 0.0 4.0 0.00 0.01 0.00 87 1010.4
20260506090603 46 35 0.0 4.0 0.00 0.01 0.00 86 1010.1
20260506085603 46 355 0.0 0.0 0.00 0.01 0.00 87 1010.0
20260506085550 46 355 0.0 0.0 0.00 0.01 0.00 87 1010.1
20260506084833 46 355 0.0 0.0 0.00 0.01 0.00 87 1009.9
20260506084551 46 355 0.0 0.0 0.00 0.01 0.00 87 1009.7
20260506083602 46 355 0.0 0.0 0.00 0.01 0.00 87 1009.5
20260506083104 46 355 0.0 0.0 0.00 0.01 0.00 87 1009.6
20260506083058 46 0 0.0 0.0 0.00 0.01 0.00 86 1009.4
20260506082102 46 0 0.0 0.0 0.00 0.01 0.00 87 1009.3
20260506081603 46 0 0.0 0.0 0.00 0.01 0.00 86 1009.2
20260506081102 46 0 0.0 0.0 0.00 0.01 0.00 86 1009.3
20260506080603 46 0 0.0 0.0 0.00 0.01 0.00 86 1009.1
20260506073310 47 40 0.0 0.0 0.00 0.01 0.00 83 1008.5
20260506073035 47 40 0.0 0.0 0.00 0.01 0.00 83 1008.7
20260506072046 47 40 0.0 0.0 0.00 0.01 0.00 82 1008.9
20260506071546 47 40 0.0 1.0 0.00 0.01 0.00 82 1008.8
20260506071045 47 40 0.0 1.0 0.00 0.01 0.00 82 1008.7
20260506070542 47 40 0.0 3.0 0.00 0.01 0.00 83 1008.1
20260506062035 47 44 0.0 0.0 0.00 0.01 0.00 82 1008.7
20260506061533 47 44 0.0 0.0 0.00 0.01 0.00 82 1008.4
20260506061252 47 44 0.0 6.0 0.00 0.01 0.00 81 1008.3
20260506060530 47 45 0.0 6.0 0.00 0.01 0.00 81 1008.3
20260506060300 47 74 0.0 3.0 0.00 0.01 0.00 81 1008.4
20260506051003 47 28 0.0 5.0 0.00 0.01 0.00 81 1009.0
20260506050503 47 32 0.0 5.0 0.00 0.01 0.00 82 1009.0
20260506045004 47 55 0.0 5.0 0.00 0.01 0.01 81 1009.1
20260506044503 47 40 0.0 5.0 0.00 0.01 0.01 81 1009.0
20260506044003 47 38 0.0 3.0 0.00 0.01 0.01 80 1008.9
20260506043949 47 38 0.0 1.0 0.00 0.01 0.01 81 1009.0
20260506043005 47 40 0.0 1.0 0.00 0.01 0.01 81 1009.0
20260506042502 47 40 0.0 0.0 0.00 0.01 0.01 81 1009.1
20260506042231 47 62 0.0 3.0 0.00 0.01 0.01 80 1009.4
20260506041504 47 62 0.0 3.0 0.00 0.01 0.01 79 1009.1
20260506041000 47 38 0.0 1.0 0.00 0.01 0.01 79 1009.3
20260506040503 47 46 1.0 8.0 0.00 0.01 0.01 78 1009.1
20260506040001 47 327 1.0 9.0 0.00 0.01 0.01 78 1009.3
20260506035720 48 343 1.0 9.0 0.00 0.02 0.01 79 1009.2
20260506034958 48 31 1.0 6.0 0.00 0.04 0.01 78 1009.1
20260506034500 48 333 1.0 8.0 0.00 0.04 0.01 79 1009.1
20260506033959 48 46 0.0 8.0 0.00 0.04 0.01 78 1008.8
20260506033458 48 325 0.0 1.0 0.00 0.04 0.01 77 1009.0
20260506032953 48 327 0.0 1.0 0.00 0.04 0.01 76 1009.0
20260506032453 48 324 0.0 5.0 0.00 0.04 0.01 76 1008.8
20260506031953 48 320 0.0 5.0 0.00 0.04 0.01 76 1008.5
20260506031453 49 333 0.0 2.0 0.00 0.04 0.01 76 1008.6
20260506030953 49 355 0.0 2.0 0.00 0.04 0.01 75 1008.5
20260506030453 49 355 0.0 2.0 0.00 0.04 0.01 73 1008.3
20260506025954 49 23 0.0 5.0 0.00 0.04 0.01 72 1008.2
20260506025716 49 0 0.0 5.0 0.00 0.04 0.01 73 1008.0
20260506024955 49 43 0.0 1.0 0.00 0.04 0.01 74 1007.8
20260506024448 49 42 0.0 2.0 0.00 0.04 0.01 74 1007.7
20260506023950 49 44 0.0 5.0 0.00 0.04 0.01 74 1007.6
20260506023449 49 44 1.0 5.0 0.00 0.04 0.01 74 1007.6
20260506022950 49 41 1.0 4.0 0.00 0.04 0.01 75 1007.4
20260506022452 49 38 1.0 4.0 0.00 0.04 0.01 75 1007.2
20260506022438 49 66 0.0 5.0 0.00 0.04 0.01 75 1007.0
20260506021933 49 45 0.0 5.0 0.00 0.04 0.01 76 1006.8
20260506020950 49 63 0.0 0.0 0.00 0.04 0.01 77 1006.9
20260506020449 49 63 0.0 0.0 0.00 0.04 0.01 76 1007.2
20260506015945 49 64 0.0 6.0 0.00 0.04 0.01 76 1007.3
20260506015708 49 65 1.0 6.0 0.00 0.04 0.01 75 1007.3
20260506014945 49 34 1.0 9.0 0.00 0.04 0.01 75 1006.9
20260506014446 49 36 1.0 9.0 0.00 0.04 0.01 74 1007.0
20260506014207 49 32 1.0 11.0 0.00 0.04 0.01 74 1007.0
20260506013446 49 58 1.0 11.0 0.00 0.04 0.01 73 1006.8
20260506012945 49 38 1.0 15.0 0.00 0.04 0.01 73 1006.5
20260506012704 49 39 2.0 15.0 0.00 0.04 0.01 72 1006.3
20260506011949 49 49 1.0 10.0 0.00 0.04 0.01 72 1006.2
20260506011449 49 43 2.0 10.0 0.00 0.04 0.01 72 1006.4
20260506010950 49 49 2.0 10.0 0.00 0.04 0.01 72 1006.5
20260506010700 50 56 2.0 11.0 0.00 0.04 0.01 72 1006.2
20260506005943 50 55 1.0 11.0 0.00 0.04 0.01 72 1006.0
20260506005441 50 85 1.0 9.0 0.00 0.04 0.01 72 1006.0
20260506005203 50 47 2.0 11.0 0.00 0.04 0.01 73 1005.8
20260506004436 50 36 2.0 14.0 0.00 0.04 0.01 73 1005.7
20260506004205 50 5 1.0 14.0 0.00 0.04 0.01 74 1005.8
20260506003429 50 46 1.0 6.0 0.00 0.04 0.01 75 1005.7
20260506003146 50 39 1.0 6.0 0.00 0.04 0.01 75 1005.6
20260506002416 50 85 1.0 8.0 0.00 0.04 0.01 75 1005.6
20260506001915 50 5 1.0 8.0 0.00 0.04 0.01 75 1005.6
20260506001415 50 36 1.0 8.0 0.00 0.04 0.01 75 1005.9
20260506000913 50 32 0.0 8.0 0.00 0.04 0.01 75 1006.0
20260506000416 50 42 0.0 6.0 0.00 0.04 0.01 76 1005.8
20260506000135 50 37 1.0 6.0 0.00 0.04 0.01 76 1005.7
20260505235411 50 34 1.0 6.0 0.00 0.04 0.01 75 1005.9
20260505234913 50 17 0.0 7.0 0.00 0.04 0.01 75 1005.9
20260505234413 50 58 1.0 7.0 0.00 0.04 0.01 75 1005.8
20260505233908 50 81 1.0 6.0 0.00 0.04 0.01 75 1005.8
20260505233628 50 32 1.0 9.0 0.00 0.04 0.01 75 1005.8
20260505233143 50 38 1.0 9.0 0.00 0.04 0.01 75 1005.7
20260505232405 50 355 1.0 6.0 0.00 0.04 0.01 77 1005.6
20260505231905 50 317 1.0 10.0 0.00 0.04 0.01 77 1005.6
20260505231403 50 42 2.0 10.0 0.00 0.04 0.01 77 1005.5
20260505230902 50 5 1.0 11.0 0.00 0.04 0.01 77 1005.4
20260505230829 50 30 1.0 11.0 0.00 0.04 0.01 77 1005.4
20260505230825 50 41 1.0 9.0 0.00 0.04 0.01 77 1005.4
20260505225350 50 22 2.0 12.0 0.00 0.04 0.01 76 1005.3
20260505224851 50 44 2.0 14.0 0.00 0.04 0.01 75 1005.2
20260505224617 50 21 2.0 14.0 0.00 0.04 0.01 75 1005.2
20260505223849 50 24 2.0 11.0 0.00 0.04 0.01 74 1004.9
20260505223347 50 42 1.0 9.0 0.00 0.04 0.01 74 1005.0
20260505223108 51 38 1.0 9.0 0.00 0.04 0.01 74 1005.1
20260505222347 51 30 1.0 12.0 0.00 0.04 0.01 73 1005.1
20260505222105 51 32 2.0 17.0 0.00 0.04 0.01 73 1005.0
20260505221346 51 34 2.0 17.0 0.00 0.04 0.01 71 1004.7
20260505220841 51 48 2.0 13.0 0.00 0.04 0.01 70 1004.8
20260505220340 51 28 2.0 16.0 0.00 0.04 0.01 70 1004.8
20260505215839 51 33 2.0 16.0 0.00 0.04 0.01 70 1004.9
20260505215340 51 52 2.0 14.0 0.00 0.04 0.01 71 1005.0
20260505214839 51 42 2.0 16.0 0.00 0.04 0.01 71 1004.7
20260505214337 51 47 3.0 17.0 0.00 0.04 0.01 71 1004.6
20260505213838 51 64 2.0 17.0 0.00 0.04 0.01 71 1004.6
20260505213602 51 350 1.0 13.0 0.00 0.04 0.01 72 1004.5
20260505212832 51 50 2.0 13.0 0.00 0.04 0.01 72 1004.5
20260505212334 51 34 2.0 14.0 0.00 0.04 0.01 72 1004.6
20260505211831 51 74 2.0 14.0 0.00 0.04 0.01 72 1004.7
20260505211601 52 27 2.0 13.0 0.00 0.04 0.01 72 1004.8
20260505210835 52 24 1.0 16.0 0.00 0.04 0.01 73 1004.7
20260505210332 52 67 1.0 16.0 0.00 0.04 0.01 73 1004.5
20260505205834 52 44 2.0 14.0 0.00 0.04 0.01 72 1004.6
20260505205335 52 14 3.0 17.0 0.00 0.04 0.01 72 1004.5
20260505204834 52 45 3.0 17.0 0.00 0.04 0.01 71 1004.6
20260505204553 52 43 3.0 14.0 0.00 0.04 0.01 70 1004.7
20260505203832 52 34 2.0 14.0 0.00 0.04 0.01 70 1004.7
20260505203332 52 41 2.0 15.0 0.00 0.04 0.01 70 1004.8
20260505202832 52 28 1.0 15.0 0.00 0.04 0.01 70 1004.7
20260505202334 52 27 1.0 12.0 0.00 0.04 0.01 70 1004.5
20260505202052 52 321 1.0 10.0 0.00 0.04 0.01 70 1004.4
20260505201334 52 22 2.0 13.0 0.00 0.04 0.01 70 1004.5
20260505200832 52 32 2.0 13.0 0.00 0.04 0.01 69 1004.5
20260505200600 52 355 2.0 18.0 0.00 0.04 0.01 69 1004.5
20260505200051 52 63 2.0 18.0 0.00 0.04 0.01 69 1004.6
20260505195602 53 40 2.0 11.0 0.00 0.04 0.01 70 1004.4
20260505194832 53 30 1.0 11.0 0.00 0.04 0.01 70 1004.6
20260505194332 53 38 1.0 11.0 0.00 0.04 0.01 70 1004.7
20260505193832 53 35 2.0 12.0 0.00 0.04 0.01 69 1004.5
20260505193332 53 56 2.0 12.0 0.00 0.04 0.01 69 1004.4
20260505192833 53 36 3.0 15.0 0.00 0.04 0.01 69 1004.1
20260505192332 53 42 3.0 19.0 0.00 0.04 0.01 69 1004.1
20260505191833 53 21 2.0 19.0 0.00 0.04 0.01 70 1004.3
20260505191331 53 60 1.0 11.0 0.00 0.04 0.01 70 1004.1
20260505190832 53 64 1.0 10.0 0.00 0.04 0.01 70 1004.0
20260505190603 53 44 1.0 6.0 0.00 0.04 0.01 69 1004.0
20260505185832 53 27 1.0 11.0 0.00 0.04 0.01 70 1004.0
20260505185335 53 311 2.0 12.0 0.00 0.04 0.01 68 1004.0
20260505185058 53 34 2.0 13.0 0.00 0.04 0.01 70 1004.1
20260505184339 53 55 2.0 13.0 0.00 0.04 0.01 69 1004.0
20260505184050 53 342 2.0 15.0 0.00 0.04 0.01 70 1003.9
20260505183332 53 32 2.0 15.0 0.00 0.04 0.01 70 1003.7
20260505182832 53 26 2.0 10.0 0.00 0.04 0.01 71 1003.8
20260505182556 53 53 2.0 12.0 0.00 0.04 0.01 72 1003.8
20260505181828 53 48 3.0 20.0 0.00 0.04 0.01 70 1003.7
20260505181547 53 84 3.0 20.0 0.00 0.04 0.01 70 1003.5
20260505180829 53 51 3.0 19.0 0.00 0.04 0.01 69 1003.8
20260505180330 53 43 2.0 19.0 0.00 0.04 0.01 69 1003.7
20260505175828 54 31 2.0 13.0 0.00 0.04 0.01 70 1003.6
20260505175328 54 5 1.0 15.0 0.00 0.04 0.01 71 1003.7
20260505174831 54 43 2.0 15.0 0.00 0.04 0.01 71 1003.5
20260505174328 54 48 2.0 14.0 0.00 0.04 0.01 70 1003.5
20260505173828 54 11 2.0 14.0 0.00 0.04 0.01 71 1003.6
20260505173328 54 33 2.0 11.0 0.00 0.04 0.01 71 1003.4
20260505172827 54 5 2.0 11.0 0.00 0.04 0.01 71 1003.3
20260505172328 54 87 1.0 11.0 0.00 0.04 0.01 73 1003.2
20260505171827 54 0 1.0 10.0 0.00 0.04 0.01 73 1003.1
20260505171325 54 36 1.0 10.0 0.00 0.04 0.01 73 1003.1
20260505170826 54 62 1.0 9.0 0.00 0.04 0.01 72 1003.1
20260505170555 54 42 2.0 18.0 0.00 0.04 0.01 73 1002.9
20260505165826 54 355 2.0 18.0 0.00 0.04 0.01 74 1002.8
20260505165323 54 58 1.0 16.0 0.00 0.04 0.01 78 1002.8
20260505165311 53 22 2.0 12.0 0.00 0.04 0.01 79 1002.7
20260505165056 53 22 2.0 12.0 0.00 0.04 0.01 79 1002.7
20260505164324 53 78 2.0 13.0 0.00 0.04 0.01 79 1002.7
20260505163824 53 64 2.0 13.0 0.00 0.04 0.01 80 1002.5
20260505163324 53 91 2.0 11.0 0.00 0.04 0.01 81 1002.6
20260505162825 53 32 2.0 11.0 0.00 0.04 0.01 82 1002.5
20260505162322 53 51 2.0 12.0 0.00 0.04 0.01 82 1002.4
20260505162040 53 32 2.0 18.0 0.00 0.04 0.01 82 1002.3
20260505162024 53 355 2.0 13.0 0.00 0.04 0.01 82 1002.4
20260505160822 53 59 2.0 18.0 0.00 0.04 0.01 82 1002.1
20260505160321 53 76 2.0 12.0 0.00 0.04 0.01 83 1002.1
20260505153321 53 324 1.0 12.0 0.00 0.04 0.01 84 1002.2
20260505152818 53 38 1.0 12.0 0.00 0.04 0.01 85 1002.2
20260505152320 53 44 1.0 17.0 0.00 0.04 0.01 85 1002.0
20260505151817 53 53 2.0 17.0 0.00 0.04 0.01 85 1001.8
20260505151318 53 44 1.0 14.0 0.00 0.04 0.01 84 1001.8
20260505150816 53 57 1.0 11.0 0.00 0.04 0.01 84 1002.0
20260505150314 53 44 1.0 6.0 0.00 0.04 0.01 84 1002.2
20260505140309 55 57 1.0 13.0 0.00 0.04 0.01 85 1000.8
20260505130305 58 49 1.0 11.0 0.00 0.04 0.01 84 1000.2
20260505124804 59 45 2.0 10.0 0.00 0.04 0.01 84 999.9
20260505124303 59 58 1.0 10.0 0.00 0.04 0.01 84 999.9
20260505123757 59 48 1.0 8.0 0.00 0.04 0.01 84 999.9
20260505123518 60 34 1.0 13.0 0.00 0.04 0.01 84 999.9
20260505122744 60 61 1.0 13.0 0.00 0.04 0.01 83 999.8
20260505122246 60 55 1.0 11.0 0.00 0.04 0.01 83 999.5
20260505121745 60 59 1.0 11.0 0.00 0.04 0.01 83 999.4
20260505121245 61 58 1.0 11.0 0.00 0.04 0.01 83 999.4
20260505120745 62 42 0.0 11.0 0.00 0.04 0.01 85 999.3
20260505120241 62 34 0.0 0.0 0.00 0.04 0.01 86 999.1
20260505115740 62 34 0.0 1.0 0.00 0.04 0.01 85 999.2
20260505115235 62 58 0.0 1.0 0.00 0.04 0.01 86 999.0
20260505114735 62 55 0.0 1.0 0.00 0.04 0.01 86 998.8
20260505114456 62 49 0.0 1.0 0.01 0.04 0.01 86 998.9
20260505113733 62 49 0.0 1.0 0.01 0.04 0.01 86 998.8
20260505113233 62 50 0.0 1.0 0.01 0.04 0.01 86 998.7
20260505112736 62 44 0.0 2.0 0.01 0.04 0.01 87 998.8
20260505112458 62 62 1.0 6.0 0.01 0.04 0.01 87 998.6
20260505111732 62 44 1.0 6.0 0.01 0.04 0.01 87 998.7
20260505111232 61 31 0.0 4.0 0.01 0.04 0.01 87 998.7
20260505110731 61 44 0.0 0.0 0.01 0.04 0.01 87 998.6
20260505110232 62 58 0.0 0.0 0.01 0.04 0.01 86 998.5
20260505102204 64 44 0.0 5.0 0.00 0.03 0.00 80 998.1
20260505101705 65 134 0.0 4.0 0.00 0.03 0.00 79 997.9
20260505101205 65 144 0.0 4.0 0.00 0.03 0.00 79 997.2
20260505100705 65 147 0.0 8.0 0.00 0.03 0.00 79 997.0
20260505100205 65 137 1.0 8.0 0.00 0.03 0.00 79 997.0
20260505095704 65 142 1.0 8.0 0.00 0.03 0.00 80 997.0
20260505095204 64 176 1.0 9.0 0.00 0.03 0.00 81 997.0
20260505094704 64 156 1.0 9.0 0.00 0.03 0.00 81 997.0
20260505094204 64 129 0.0 7.0 0.00 0.03 0.00 81 997.3
20260505093704 64 161 0.0 8.0 0.00 0.03 0.00 81 997.4
20260505093204 64 142 1.0 8.0 0.00 0.03 0.00 81 997.4
20260505092923 64 133 0.0 5.0 0.00 0.03 0.00 80 997.3
20260505092911 64 141 0.0 5.0 0.00 0.03 0.00 80 997.4
20260505091704 64 140 0.0 4.0 0.00 0.03 0.00 80 997.4